Time,TemperatureF,DewpointF,PressureIn,WindDirection,WindDirectionDegrees,WindSpeedMPH,WindSpeedGustMPH,Humidity,HourlyPrecipIn,Conditions,Clouds,dailyrainin,SoftwareType,DateUTC
2013-08-10 07:42:00,57.0,8.0,29.71,North,0,0.0,-999.0,14,0.00,,,-99.99,,2013-08-10 14:42:00,
2013-08-10 07:53:00,57.0,8.0,29.71,North,0,0.0,-999.0,14,0.00,,,-99.99,,2013-08-10 14:53:00,
2013-08-10 09:43:00,62.0,14.0,29.72,ENE,60,2.0,-999.0,15,0.00,,,-99.99,,2013-08-10 16:43:00,
2013-08-10 09:53:00,62.0,14.0,29.72,ENE,60,2.0,-999.0,15,0.00,,,-99.99,,2013-08-10 16:53:00,
2013-08-10 10:33:00,66.0,20.0,29.70,SSE,150,3.0,-999.0,17,0.00,,,-99.99,,2013-08-10 17:33:00,
2013-08-10 10:43:00,66.0,20.0,29.70,SSE,150,3.0,-999.0,17,0.00,,,-99.99,,2013-08-10 17:43:00,
2013-08-10 10:52:00,66.0,20.0,29.70,SSE,150,3.0,-999.0,17,0.00,,,-99.99,,2013-08-10 17:52:00,
2013-08-10 11:32:00,67.0,19.0,29.73,SSW,200,2.0,-999.0,16,0.00,,,-99.99,,2013-08-10 18:32:00,
2013-08-10 11:43:00,67.0,19.0,29.73,SSW,200,2.0,-999.0,16,0.00,,,-99.99,,2013-08-10 18:43:00,
2013-08-10 11:52:00,67.0,19.0,29.73,SSW,200,2.0,-999.0,16,0.00,,,-99.99,,2013-08-10 18:52:00,
2013-08-10 12:44:00,67.0,21.0,29.73,WSW,250,2.0,-999.0,17,0.00,,,-99.99,,2013-08-10 19:44:00,
2013-08-10 12:53:00,67.0,21.0,29.73,WSW,250,2.0,-999.0,17,0.00,,,-99.99,,2013-08-10 19:53:00,
2013-08-10 13:33:00,67.0,21.0,29.72,West,260,4.0,-999.0,17,0.00,,,-99.99,,2013-08-10 20:33:00,
2013-08-10 13:43:00,67.0,21.0,29.72,West,260,4.0,-999.0,17,0.00,,,-99.99,,2013-08-10 20:43:00,
2013-08-10 13:53:00,67.0,21.0,29.72,West,260,4.0,-999.0,17,0.00,,,-99.99,,2013-08-10 20:53:00,
2013-08-10 14:32:00,67.0,22.0,29.73,SSE,160,2.0,-999.0,18,0.00,,,-99.99,,2013-08-10 21:32:00,
2013-08-10 14:52:00,67.0,22.0,29.73,SSE,160,2.0,-999.0,18,0.00,,,-99.99,,2013-08-10 21:52:00,
2013-08-10 17:42:00,66.0,21.0,29.71,South,190,2.0,-999.0,18,0.00,,,-99.99,,2013-08-11 00:42:00,
2013-08-10 17:52:00,66.0,21.0,29.71,South,190,2.0,-999.0,18,0.00,,,-99.99,,2013-08-11 00:52:00,
2013-08-10 18:32:00,65.0,26.0,29.72,SSE,160,3.0,-999.0,23,0.00,,,-99.99,,2013-08-11 01:32:00,
2013-08-10 18:43:00,65.0,26.0,29.72,SSE,160,3.0,-999.0,23,0.00,,,-99.99,,2013-08-11 01:43:00,
2013-08-10 18:53:00,65.0,26.0,29.72,SSE,160,3.0,-999.0,23,0.00,,,-99.99,,2013-08-11 01:53:00,
2013-08-10 18:54:00,63.0,21.0,29.72,North,0,0.0,-999.0,20,0.00,,,-99.99,,2013-08-11 01:54:00,
2013-08-10 19:32:00,63.0,21.0,29.72,North,0,0.0,-999.0,20,0.00,,,-99.99,,2013-08-11 02:32:00,
2013-08-10 20:43:00,60.0,19.0,29.74,North,0,0.0,-999.0,20,0.00,,,-99.99,,2013-08-11 03:43:00,
2013-08-10 20:53:00,60.0,19.0,29.74,North,0,0.0,-999.0,20,0.00,,,-99.99,,2013-08-11 03:53:00,
2013-08-10 21:32:00,55.0,20.0,29.75,North,0,0.0,-999.0,25,0.00,,,-99.99,,2013-08-11 04:32:00,
2013-08-10 21:42:00,55.0,20.0,29.75,North,0,0.0,-999.0,25,0.00,,,-99.99,,2013-08-11 04:42:00,
2013-08-10 21:53:00,55.0,20.0,29.75,North,0,0.0,-999.0,25,0.00,,,-99.99,,2013-08-11 04:53:00,
2013-08-10 22:34:00,53.0,21.0,29.77,North,0,0.0,-999.0,28,0.00,,,-99.99,,2013-08-11 05:34:00,
2013-08-10 22:44:00,53.0,21.0,29.77,North,0,0.0,-999.0,28,0.00,,,-99.99,,2013-08-11 05:44:00,
2013-08-10 23:34:00,53.0,20.0,29.75,North,0,0.0,-999.0,27,0.00,,,-99.99,,2013-08-11 06:34:00,
2013-08-10 23:46:00,53.0,20.0,29.75,North,0,0.0,-999.0,27,0.00,,,-99.99,,2013-08-11 06:46:00,
2013-08-10 23:53:00,53.0,20.0,29.75,North,0,0.0,-999.0,27,0.00,,,-99.99,,2013-08-11 06:53:00,